Wind_Speed
24 24 24 25 25 24 22 22 22 22 22 21 19 17 17 20 22 23 25 27 28 28 28 28 28 28 28 28 28 28 28 27 25 23 19 14 9 6 7 10 12 13 14 15 15 16 16 16 17 18 18 17 15 12 13 13 10 9 8 8 7 5 6 7 8 9 10 10 10 10 10 10 11 11 10 8 7 5 4 3 2 4 5 4 4
25 25 25 24 24 24 24 24 25 26 26 24 19 15 15 18 20 21 23 24 25 26 26 26 26 26 25 25 25 25 25 26 25 25 24 22 19 16 11 8 8 11 14 16 17 17 18 19 19 20 20 19 17 13 13 14 14 14 13 12 11 8 6 6 7 8 9 10 10 10 10 10 10 11 11 10 9 7 6 5 4 4 5 5 5
24 25 25 25 24 23 22 23 24 26 27 27 21 14 14 17 20 22 24 24 24 24 24 24 24 24 24 24 24 23 23 23 23 23 23 23 22 21 19 15 12 9 9 12 16 19 20 21 22 22 21 20 20 17 16 17 17 17 17 16 15 13 9 7 7 8 8 10 11 11 12 11 11 11 11 11 11 10 9 8 7 6 7 7 7
23 24 24 25 25 23 21 21 21 23 24 26 23 15 13 16 19 22 25 26 25 24 23 23 23 23 23 24 24 23 23 22 21 20 20 20 20 20 20 18 16 13 11 10 11 15 19 22 24 24 23 22 22 21 20 19 19 19 19 18 18 18 14 11 9 8 8 8 10 11 12 13 12 12 11 11 12 12 11 10 9 9 8 8 8
21 22 23 23 24 23 21 20 19 19 20 21 22 17 13 14 17 19 23 24 24 24 23 23 23 22 22 23 23 23 23 23 22 20 19 18 18 18 17 17 16 14 13 12 11 11 13 18 22 25 25 24 24 24 23 22 21 20 19 19 19 20 18 15 13 11 10 8 8 10 11 12 13 13 13 12 12 12 12 13 12 11 10 10 9
20 21 22 22 22 22 22 21 20 19 18 18 19 18 15 15 18 20 23 23 23 22 22 23 22 22 22 22 22 22 23 23 23 22 21 19 18 17 16 15 14 13 12 12 12 13 13 13 16 21 25 26 26 26 26 26 25 23 21 21 20 20 20 19 18 16 14 11 9 9 10 11 13 14 15 14 14 13 13 13 14 14 13 12 11
20 21 21 21 21 22 22 22 22 20 19 18 19 19 17 17 18 20 22 24 23 20 19 21 22 23 22 22 22 22 22 22 23 23 22 21 19 18 17 16 14 13 12 11 11 13 14 14 15 16 19 23 26 28 29 28 28 27 24 22 20 20 20 20 20 20 18 15 14 12 11 11 12 13 15 16 16 15 14 14 14 15 15 14 13
19 19 19 20 20 21 21 22 22 21 20 19 18 18 17 17 18 19 21 23 22 20 18 20 22 22 22 22 22 22 22 22 22 22 22 21 21 20 19 18 16 14 12 11 11 12 13 14 15 17 17 18 21 26 30 31 30 30 27 24 22 22 22 22 21 21 21 20 19 16 15 13 12 12 14 16 18 18 17 16 15 15 16 16 15
18 18 18 19 19 20 20 21 21 21 21 20 19 18 17 17 18 19 20 21 21 20 18 19 21 22 22 22 23 23 23 22 21 20 20 20 20 20 20 19 18 17 15 12 11 11 12 13 14 15 17 18 18 20 25 30 32 31 28 26 24 23 23 23 22 22 23 23 22 20 19 17 16 14 14 16 18 19 19 19 18 17 17 17 17
17 18 18 18 19 19 19 20 20 21 21 21 20 20 19 18 19 19 20 21 20 20 19 19 20 21 22 22 22 23 23 23 21 20 20 19 19 19 19 19 19 19 17 15 12 12 12 12 12 13 15 17 18 18 19 24 31 32 30 27 26 25 24 23 23 24 24 24 24 24 24 22 21 19 18 18 19 20 21 21 21 20 19 18 19
18 18 18 18 18 18 18 18 19 20 21 21 21 20 20 19 19 19 20 21 21 20 20 20 20 21 22 22 22 22 23 23 22 21 20 19 19 19 19 19 19 19 18 17 14 13 12 11 11 12 14 15 17 17 17 17 24 31 31 27 25 26 26 24 23 25 26 25 25 27 28 27 26 25 23 22 22 22 22 23 23 23 22 20 20
19 18 18 18 18 18 18 18 19 19 20 21 21 21 20 20 20 20 20 21 21 21 20 20 20 20 21 22 22 22 23 24 23 22 20 20 19 18 19 19 19 19 18 18 17 16 14 12 12 12 12 14 15 16 16 13 15 23 28 27 25 26 27 25 24 25 26 27 28 28 29 29 29 29 28 27 25 25 25 24 24 25 25 24 22
19 19 18 18 19 19 19 19 19 20 21 21 22 22 22 21 21 21 21 21 21 21 21 20 20 20 21 22 22 23 24 24 24 24 21 20 20 19 20 20 19 20 20 19 19 18 17 15 14 13 13 14 14 14 14 11 6 11 20 23 23 25 26 25 24 25 26 27 29 29 30 30 30 30 31 31 30 29 28 27 26 26 27 27 26
19 18 19 19 19 19 19 19 20 21 22 23 23 24 24 24 23 22 22 21 21 22 21 20 20 20 21 21 22 23 24 24 24 25 23 21 21 20 20 21 21 21 21 21 21 20 19 18 18 15 14 14 14 15 14 12 9 2 8 15 19 22 24 25 25 25 26 27 28 29 30 31 32 32 33 33 33 33 32 31 30 29 28 29 29
19 19 20 20 20 20 21 21 22 23 24 25 26 26 27 26 26 25 24 23 23 23 22 21 20 21 21 21 22 23 23 24 24 25 25 23 21 21 21 21 21 22 23 22 22 22 20 19 19 18 16 15 15 15 14 13 12 9 4 3 9 13 18 22 24 26 27 28 29 31 31 31 32 34 34 35 35 35 35 35 34 33 31 30 31
20 20 20 21 21 22 22 23 24 25 26 27 28 28 29 29 28 27 26 25 24 24 24 23 22 22 22 23 23 23 23 24 25 25 26 24 23 22 22 21 21 22 23 23 23 24 23 21 20 20 19 17 17 16 16 16 16 14 12 7 5 7 10 14 18 22 26 28 30 33 34 36 36 36 36 36 37 37 36 36 37 37 35 33 32
20 21 21 21 22 22 23 24 25 26 28 29 29 29 30 31 30 30 29 27 26 25 24 24 23 23 24 24 25 24 24 24 25 26 26 26 24 23 23 23 22 23 24 24 24 24 24 23 22 21 20 19 18 18 18 19 20 21 21 19 18 18 18 19 20 22 24 26 29 31 34 36 39 40 40 39 38 38 39 38 38 38 38 37 35
21 22 22 22 23 23 24 25 27 28 29 30 31 31 31 32 32 32 31 30 28 26 25 23 23 23 24 26 27 27 27 26 25 26 27 28 27 25 25 25 24 25 25 26 25 25 25 25 23 22 22 21 19 19 19 20 21 25 27 29 30 31 31 32 32 32 31 30 31 32 33 34 36 39 42 43 42 41 40 40 40 39 39 39 38
22 22 23 24 24 25 26 27 28 29 30 31 32 33 34 34 33 33 32 31 30 28 26 24 24 23 24 26 28 28 29 28 27 27 27 29 30 29 28 27 26 26 27 27 28 28 27 25 25 24 24 23 22 21 21 22 24 26 29 32 35 37 38 39 40 39 38 38 37 35 34 34 35 36 40 43 45 45 44 42 42 42 41 41 41
22 24 24 25 26 27 27 29 29 31 32 34 34 35 35 35 35 34 33 32 30 28 27 26 26 25 26 27 29 30 30 30 29 29 29 30 31 32 31 30 28 27 27 27 29 30 30 28 26 25 25 26 26 24 24 25 27 29 30 34 37 40 41 42 43 42 41 41 40 39 38 36 36 36 38 42 44 47 47 45 44 44 44 43 43
23 24 25 26 27 28 29 30 31 32 33 35 36 36 36 36 36 35 33 31 30 28 27 27 27 26 27 29 30 32 33 32 31 31 32 32 33 34 33 32 31 30 28 27 28 30 31 31 29 27 27 29 30 29 28 30 33 34 34 36 39 42 44 45 45 44 43 42 41 41 40 40 39 37 37 40 44 46 48 48 47 47 46 46 45
24 25 26 27 28 29 30 31 32 33 34 35 37 37 37 37 37 36 34 32 30 29 29 29 28 28 29 31 33 35 36 35 33 33 34 35 35 35 35 34 34 33 31 29 29 29 30 32 32 31 29 30 31 31 31 33 37 39 40 41 42 45 46 45 45 45 44 43 42 42 42 42 42 40 38 39 43 45 47 49 50 50 49 49 48
25 26 27 28 29 30 31 33 34 35 35 36 37 38 39 39 38 38 36 33 31 30 29 29 29 29 31 34 36 38 38 37 36 36 37 37 37 37 36 36 35 36 34 32 31 31 32 33 33 33 32 32 32 34 36 38 41 43 45 46 48 49 48 47 45 43 42 43 43 43 44 44 43 42 41 40 41 44 45 47 49 50 51 52 52
26 27 28 29 30 31 33 34 35 36 37 38 39 39 40 40 39 39 38 35 33 32 31 31 31 31 33 36 38 39 40 40 39 40 40 39 38 38 38 38 37 37 36 34 33 34 35 35 35 34 34 35 36 39 42 44 46 46 48 50 51 52 51 49 46 43 42 42 43 43 44 45 43 42 42 43 43 44 45 46 47 49 51 53 55
28 28 30 31 32 33 34 35 36 38 39 39 40 40 41 41 40 39 39 38 37 35 35 34 34 34 35 37 38 40 41 42 43 43 42 40 40 40 39 39 38 38 38 37 36 37 39 39 39 39 39 40 41 44 47 49 50 50 51 52 52 51 50 49 48 45 43 43 43 43 43 43 42 42 42 43 44 44 46 47 48 48 50 53 55
30 30 31 32 33 34 35 36 37 38 40 41 41 41 42 42 42 42 41 40 39 38 37 37 37 37 38 39 40 41 42 43 44 44 41 40 42 43 41 40 39 39 39 39 39 41 42 43 43 45 46 46 45 46 49 51 53 55 56 55 54 52 51 50 48 45 43 43 44 43 42 41 41 40 41 42 43 44 46 48 50 50 51 52 54
31 32 32 33 34 35 36 37 38 39 40 41 42 43 44 44 44 43 42 41 41 40 39 38 38 38 39 40 41 42 43 44 45 43 40 40 44 45 44 43 42 41 41 41 42 43 44 45 46 48 49 50 51 53 54 56 57 59 60 60 58 55 52 49 47 44 42 42 43 42 41 40 40 40 40 40 41 42 44 46 49 51 52 53 53
33 34 34 34 35 36 37 38 40 41 41 42 43 44 45 46 45 44 43 42 41 41 40 39 39 39 40 41 42 43 44 45 45 43 41 42 46 47 46 45 44 44 44 43 43 44 45 47 49 51 53 54 56 58 60 61 62 63 63 61 59 56 52 48 45 43 41 40 41 41 40 39 40 40 40 40 40 41 42 44 46 49 52 54 55
35 36 37 37 37 37 39 40 41 42 43 43 44 44 46 47 46 45 45 43 42 42 41 41 41 41 42 43 44 45 46 46 47 44 42 44 48 48 47 45 44 45 46 45 45 45 47 49 51 53 54 56 58 60 62 63 64 64 63 59 55 51 48 45 42 40 39 39 39 40 40 41 41 42 41 41 41 41 41 42 44 46 50 54 56
36 37 39 40 40 40 40 41 42 43 44 44 45 45 46 47 47 47 46 45 44 43 43 42 43 44 44 44 45 47 47 48 48 45 43 45 48 48 46 45 45 45 45 44 44 45 47 49 50 53 55 56 58 60 61 62 61 59 56 52 48 46 44 41 39 38 38 39 39 40 42 44 45 46 46 46 45 44 43 43 44 45 47 50 54
38 39 40 41 42 43 43 43 44 45 45 46 46 47 47 48 48 48 48 47 45 44 44 44 45 45 46 46 47 48 49 49 48 44 44 47 48 47 46 47 47 46 45 45 44 46 48 49 50 52 53 54 54 55 56 55 53 52 49 46 44 44 43 42 40 40 41 41 42 42 44 46 48 50 51 52 51 50 50 51 50 49 49 51 54
39 40 41 42 44 44 45 46 47 47 48 48 48 49 50 50 50 50 49 48 47 46 46 46 47 46 46 49 51 51 51 50 48 46 47 49 49 48 48 49 48 45 45 45 45 46 49 51 52 51 51 50 48 48 49 49 48 47 46 46 46 45 43 43 43 43 45 46 47 47 48 50 52 54 56 57 57 56 57 58 58 56 54 54 56
41 42 43 43 44 46 46 47 48 49 50 50 51 51 52 52 52 52 51 50 49 48 48 49 48 46 48 51 53 54 53 51 50 50 50 50 50 49 50 50 46 43 43 45 46 48 50 52 52 49 45 43 42 43 44 44 45 46 48 49 48 45 44 43 44 46 47 49 50 51 52 54 56 58 60 61 62 63 63 64 65 64 60 57 56
43 44 45 45 46 47 48 49 50 50 51 52 53 53 54 54 54 54 53 52 52 51 50 51 49 48 50 53 55 56 54 53 53 53 52 52 52 51 52 49 43 41 44 46 48 49 49 49 49 45 41 41 43 44 42 43 46 49 50 48 44 44 44 44 45 46 48 49 51 54 56 58 60 62 64 66 67 68 69 69 70 70 67 63 59
45 46 47 47 48 49 49 50 51 52 52 53 54 55 56 56 56 55 55 54 54 53 52 52 51 50 52 54 56 56 55 55 54 54 54 54 54 53 51 45 41 43 46 48 50 51 49 49 47 44 43 45 47 46 45 48 52 53 52 47 42 42 45 47 48 49 51 53 56 59 61 63 64 66 68 70 71 72 73 74 75 75 73 69 64
47 47 48 49 50 51 51 52 52 53 53 54 55 56 57 57 57 57 56 55 55 54 53 53 53 52 54 55 56 57 57 56 55 55 57 57 56 53 47 42 41 45 47 49 51 52 52 52 49 47 48 50 51 51 52 54 56 57 56 52 47 48 50 52 54 56 59 62 64 66 66 66 67 69 71 73 74 76 77 79 79 79 78 74 69
49 49 50 51 52 53 53 53 54 54 55 55 56 57 58 58 58 58 57 56 56 55 54 55 55 55 56 57 57 58 59 58 56 58 60 59 56 51 43 41 44 46 48 50 51 52 53 54 53 53 54 55 56 57 58 59 61 62 61 57 54 54 56 59 61 61 63 65 67 68 67 67 69 71 73 75 76 78 80 81 82 81 79 76 71
51 52 52 54 54 54 55 55 55 56 56 57 57 58 59 59 59 58 58 57 57 56 56 57 57 56 57 58 58 58 59 59 59 60 61 59 56 50 45 46 49 49 50 51 50 51 52 54 55 56 58 59 61 62 63 64 65 64 62 59 58 59 60 63 65 64 63 64 65 65 66 67 68 70 72 74 76 77 78 79 79 78 76 73 70
52 53 55 56 56 56 56 57 57 57 58 58 58 58 59 59 59 58 56 56 58 58 58 59 58 58 59 60 60 60 60 60 61 61 61 59 55 51 47 49 52 53 52 52 52 52 53 55 56 57 59 62 64 65 67 67 66 65 64 63 63 64 65 65 66 65 64 62 62 62 62 63 64 65 67 68 70 71 72 73 72 72 71 70 68
53 55 56 57 57 57 57 58 58 58 59 60 59 59 59 59 60 59 58 58 59 59 60 60 60 60 61 61 62 62 62 62 62 62 61 60 57 53 52 53 56 56 55 55 55 55 58 61 60 57 58 62 65 67 68 68 67 66 66 66 67 67 67 67 66 64 62 60 59 59 60 60 61 62 63 65 67 68 69 70 70 71 71 70 68
55 56 58 59 59 59 59 59 59 60 60 60 61 60 60 60 61 61 61 60 60 60 61 61 61 62 63 63 64 64 64 63 64 63 62 61 60 59 59 59 60 61 60 57 57 59 64 66 62 58 61 65 67 67 67 68 68 68 68 67 67 67 67 67 66 63 60 58 58 59 60 62 63 63 64 66 67 69 70 71 72 72 72 70 69
58 58 59 60 60 60 60 60 61 62 62 61 61 62 62 62 62 62 62 61 61 61 62 62 63 64 64 65 65 66 66 65 65 64 63 62 62 62 63 63 65 66 63 61 62 66 68 66 62 62 66 69 68 67 68 69 69 69 69 68 67 67 66 65 63 63 61 59 58 59 63 66 66 66 66 68 70 71 72 73 74 74 73 71 69
60 60 61 61 62 62 62 62 63 64 64 64 63 63 63 63 63 63 62 62 62 62 63 64 65 65 65 65 66 67 68 67 66 67 65 64 64 64 64 66 68 69 67 66 68 69 67 64 63 67 71 71 70 70 70 69 69 69 69 69 69 68 65 62 60 62 63 62 60 61 65 69 70 68 68 70 72 74 75 75 75 74 73 70 68
61 61 62 63 63 63 64 65 65 66 66 66 66 66 65 63 62 63 63 63 63 63 64 65 66 66 66 67 68 69 68 67 68 69 68 67 66 66 67 69 70 70 69 70 71 70 68 67 69 72 74 73 72 73 72 70 70 70 70 70 69 66 63 60 59 62 64 65 64 64 67 72 72 70 70 72 74 75 75 75 74 73 70 68 66
62 63 64 65 64 65 66 67 67 68 68 68 68 68 66 63 62 63 64 64 65 65 66 66 67 68 68 68 69 69 69 68 68 69 70 69 68 68 70 72 72 71 72 74 73 72 72 72 73 74 74 73 73 74 73 72 72 72 71 69 68 65 62 61 62 64 66 67 67 67 69 73 74 71 72 74 74 75 74 73 71 69 66 64 62
65 66 67 68 67 67 67 68 68 69 69 70 69 68 65 63 64 64 64 65 66 67 68 68 68 69 68 68 68 68 69 69 69 70 71 71 70 71 72 72 72 73 75 76 75 74 74 74 74 73 73 73 74 74 75 74 74 73 70 67 66 65 64 64 66 68 69 71 71 69 70 74 74 72 72 73 73 72 71 69 67 65 62 60 59
69 69 71 71 70 70 70 69 69 69 70 71 69 68 66 66 66 65 65 66 67 68 69 69 69 69 69 69 69 70 71 71 71 71 72 72 72 72 73 73 74 76 76 75 74 75 75 74 73 73 74 74 75 75 75 74 73 71 68 66 66 66 66 68 70 72 73 75 75 72 71 73 74 72 72 71 69 69 68 66 64 61 58 56 55
71 73 74 74 73 73 72 71 71 71 72 71 70 69 68 68 68 66 66 67 68 69 69 69 69 69 70 70 71 72 73 73 74 73 73 73 74 74 75 76 77 76 75 75 75 76 75 74 74 74 75 75 75 75 74 73 71 69 68 67 69 69 69 70 73 74 76 78 78 74 71 72 73 72 70 68 65 65 66 64 60 56 54 52 52
73 75 76 76 76 76 75 74 74 73 73 72 71 70 69 68 68 67 67 68 68 69 70 70 70 70 71 72 73 74 76 76 77 77 76 76 77 77 77 76 76 76 76 76 77 77 77 76 75 75 75 75 74 73 73 72 72 71 70 70 72 72 72 73 74 76 78 80 80 75 71 71 71 69 65 63 61 62 63 61 57 52 49 49 49
74 76 77 78 78 79 78 78 77 77 75 73 71 69 68 67 67 67 68 68 69 70 70 70 71 72 74 75 75 76 78 79 80 80 80 80 80 79 77 77 77 77 78 78 77 77 77 76 75 75 74 73 72 72 72 73 74 74 73 73 74 74 74 74 75 76 78 80 80 74 71 71 69 65 60 57 57 59 59 57 54 51 47 45 46
76 78 79 79 80 81 81 81 79 78 77 74 71 69 68 67 67 68 68 69 69 70 70 71 73 74 76 77 78 78 80 82 83 84 84 83 82 80 79 78 78 78 78 77 76 75 75 75 75 74 74 73 73 73 74 75 76 76 76 76 76 76 75 76 76 76 77 80 79 73 70 69 66 62 57 52 51 55 56 53 50 49 46 43 43
Wind_Direction
31 30 27 25 24 24 23 23 23 23 23 26 37 50 58 60 59 56 53 51 49 47 46 45 44 44 44 44 44 44 44 45 45 45 43 38 24 347 308 290 280 272 266 263 260 258 257 255 255 255 253 254 259 265 274 277 279 287 292 295 289 258 228 218 215 216 213 211 213 219 227 232 236 236 236 233 228 225 224 220 197 194 201 201 200
30 30 28 25 22 22 23 25 30 34 33 32 37 52 63 62 56 51 49 48 47 45 43 42 42 41 41 41 41 40 40 39 37 37 37 36 35 30 19 354 313 286 273 267 264 260 258 257 256 256 254 254 254 252 256 263 269 274 273 277 285 283 267 237 222 222 224 221 219 221 226 231 238 239 241 241 237 232 230 232 226 212 207 211 217
28 29 28 26 23 21 22 24 31 37 37 35 36 52 69 59 51 46 44 44 44 43 42 41 39 38 38 37 37 37 37 36 33 30 29 30 30 28 24 19 10 346 306 279 268 264 261 260 259 258 255 255 254 247 240 245 255 263 268 274 278 277 275 264 242 227 224 228 226 225 226 229 234 238 242 243 242 239 234 235 236 230 220 217 226
25 26 25 25 24 22 21 21 25 32 36 36 35 48 68 56 47 40 35 34 35 36 37 37 36 35 35 34 34 34 34 34 32 28 24 23 24 24 22 18 12 5 352 326 292 273 265 262 261 260 258 255 254 252 242 236 242 253 262 269 272 270 267 265 263 252 233 226 228 230 230 231 231 234 239 241 242 242 239 237 237 237 233 227 227
21 23 23 22 23 23 21 18 16 19 23 27 29 36 46 37 25 16 12 15 20 24 27 29 29 29 29 30 30 31 31 31 31 29 24 19 16 16 17 17 13 4 355 346 330 308 285 272 265 261 259 256 254 254 249 239 236 243 252 258 264 269 267 263 263 267 260 242 233 233 234 236 235 234 236 238 240 242 242 241 239 239 238 236 234
16 18 18 17 19 20 19 16 14 12 10 10 11 17 20 12 4 359 358 1 4 9 18 20 21 21 22 22 23 25 27 27 27 28 26 21 16 12 8 7 9 7 358 348 337 327 317 302 285 271 263 258 254 252 252 247 240 239 243 247 256 267 270 266 260 260 264 260 252 243 239 239 239 239 237 238 240 241 242 242 242 242 241 242 241
12 13 13 12 14 15 15 14 13 10 7 3 0 4 8 5 0 357 356 2 3 0 6 11 13 14 14 15 16 18 20 21 22 23 24 22 19 16 11 4 0 358 355 350 342 332 324 319 311 299 283 269 259 253 250 250 246 243 241 241 248 258 265 267 261 256 257 259 260 256 251 245 243 243 242 240 240 240 242 242 242 242 242 243 244
9 7 8 9 10 12 12 11 10 8 5 2 359 359 2 1 0 357 354 0 5 2 0 2 4 6 7 7 8 9 12 13 15 16 18 19 18 16 14 10 4 354 344 340 340 338 330 322 318 315 309 297 279 262 253 249 248 248 244 238 242 251 257 262 262 259 257 256 258 259 260 257 251 248 247 244 241 240 240 241 242 243 242 242 243
5 3 4 5 7 9 9 9 8 6 4 0 356 352 351 351 351 351 349 352 358 359 358 356 356 359 0 1 2 1 2 3 6 8 10 13 14 13 12 12 10 3 348 336 332 339 339 330 326 324 321 317 308 288 265 252 247 248 246 239 239 245 252 258 262 262 261 258 258 260 262 261 258 255 254 251 246 242 241 240 240 241 242 242 242
4 3 4 5 6 6 5 5 5 5 3 1 357 351 345 342 342 343 344 345 348 350 351 350 350 353 354 356 358 357 356 355 357 358 359 5 8 7 7 7 9 10 3 349 335 336 344 344 342 343 339 332 325 316 294 263 248 245 245 241 239 244 249 255 260 262 264 262 262 264 264 262 261 261 260 258 254 249 245 242 240 239 239 240 241
4 4 5 7 7 6 4 3 2 1 359 357 356 352 347 342 339 339 339 341 341 342 344 342 345 349 349 351 354 355 353 350 350 350 349 352 359 359 360 1 1 5 8 5 354 342 342 347 352 357 357 351 342 334 322 286 251 241 242 240 237 242 249 252 256 261 266 267 265 266 267 266 265 265 263 261 260 258 254 249 245 241 239 238 239
2 2 5 6 6 6 4 2 359 356 353 352 351 349 347 344 340 338 337 336 335 335 337 336 339 343 344 344 348 351 350 348 346 345 342 342 346 349 349 352 352 353 357 0 1 357 350 347 354 1 5 5 1 353 343 316 260 237 236 237 235 239 247 250 251 255 262 267 268 268 269 269 268 267 265 263 262 261 262 260 255 249 244 240 238
0 360 2 3 3 1 0 359 356 353 351 349 349 347 345 344 341 338 335 332 329 328 329 331 333 337 339 339 342 346 347 346 343 340 339 337 337 338 338 341 343 344 346 347 349 355 358 357 359 5 12 14 13 8 4 353 309 235 227 230 234 240 246 249 248 248 252 258 264 266 268 270 269 268 267 265 263 262 263 264 263 258 251 246 240
359 358 359 0 359 357 356 356 353 352 350 349 348 347 345 344 342 339 335 331 326 324 325 326 328 331 335 335 338 342 343 343 342 337 336 335 332 331 330 332 334 335 339 340 338 340 346 350 353 359 6 12 14 15 16 17 16 344 224 227 235 244 251 254 253 252 252 252 254 257 261 264 267 267 266 265 264 263 262 263 265 263 257 252 246
359 357 356 357 355 353 353 353 352 351 350 349 348 346 345 343 341 338 335 332 327 323 323 324 325 328 331 335 337 340 341 341 341 336 334 333 329 326 324 325 326 328 331 334 333 332 334 337 340 345 351 357 3 7 10 15 22 27 20 246 244 254 260 265 267 266 265 262 258 257 256 256 259 261 263 263 263 262 261 261 263 263 261 257 251
357 356 355 353 352 351 351 351 351 350 349 348 347 345 343 342 340 337 335 333 329 324 323 323 324 327 330 334 336 336 338 338 339 336 334 334 329 324 320 318 319 321 324 328 327 326 326 326 328 331 337 342 346 351 354 356 359 2 3 357 325 298 286 282 279 276 274 271 268 265 261 257 255 254 255 257 259 260 259 258 259 260 260 258 255
354 354 353 352 351 350 349 349 349 349 348 347 346 345 343 341 340 338 336 335 332 327 323 322 322 325 328 331 332 332 333 333 334 333 334 334 331 325 318 314 313 313 315 319 321 320 320 319 320 321 323 327 331 334 337 339 340 341 340 336 330 324 319 313 308 299 287 276 270 267 264 263 259 255 252 251 252 254 256 256 256 256 257 257 255
351 350 349 349 348 348 347 348 348 348 347 346 345 344 344 342 341 339 337 335 333 330 326 322 320 322 325 328 329 329 328 328 328 328 330 331 330 328 321 314 311 308 307 309 311 313 314 313 313 315 316 317 318 320 322 324 327 329 330 329 327 325 322 320 319 316 309 298 284 272 264 261 260 259 256 253 250 248 250 252 254 254 253 254 254
347 347 346 346 346 346 346 346 346 346 346 345 344 343 343 343 341 339 337 334 332 331 328 325 322 322 324 327 328 327 326 325 324 323 325 326 326 326 323 317 312 307 305 303 302 305 308 308 307 307 309 310 311 311 310 313 317 320 322 322 322 321 319 317 316 315 313 310 301 286 272 262 258 257 256 255 253 250 248 247 249 251 252 252 252
344 344 344 344 344 344 344 344 344 344 344 344 344 344 343 342 341 339 337 334 331 329 329 327 324 323 323 325 327 327 325 324 323 322 322 322 323 322 321 318 314 310 307 303 300 300 303 304 303 301 300 301 303 303 304 306 309 311 313 315 317 316 315 313 312 310 308 307 302 291 281 272 264 258 254 253 252 252 250 246 244 245 248 250 250
340 341 341 342 343 342 342 342 342 342 343 343 343 343 342 341 340 338 335 333 329 327 326 327 326 323 321 322 325 326 326 324 324 323 322 321 320 320 319 318 314 311 309 305 301 299 300 301 301 299 295 293 294 296 298 301 304 306 307 309 311 312 312 310 308 306 303 302 297 287 281 277 272 266 258 252 250 249 250 248 244 241 242 245 248
336 338 339 339 340 340 340 340 339 340 341 342 342 342 342 341 339 337 334 332 328 326 325 325 325 323 320 320 323 324 325 325 324 323 323 321 320 318 317 315 314 312 311 308 304 303 303 302 302 300 295 290 289 290 293 297 300 302 303 305 306 307 308 306 305 303 299 297 294 285 279 276 273 270 266 259 253 249 248 248 246 242 239 239 242
334 336 336 337 338 338 338 337 337 337 338 340 342 342 341 340 338 337 335 332 329 327 325 325 324 323 321 320 322 323 324 325 324 323 323 322 320 318 315 313 311 310 311 310 310 308 306 304 303 302 299 293 288 287 289 293 296 299 301 302 303 304 304 302 301 297 293 290 287 283 278 275 272 270 269 266 260 254 250 247 245 243 240 237 236
333 334 334 335 336 336 336 335 335 336 337 338 340 341 340 339 337 335 333 331 328 326 324 324 323 322 320 320 322 324 325 325 323 321 321 321 320 318 315 312 310 309 310 311 312 310 307 305 302 301 299 296 292 289 289 291 293 296 298 300 302 302 302 301 299 294 288 282 279 277 275 274 272 269 266 264 262 258 255 251 247 242 239 237 236
331 332 333 333 333 334 333 333 334 334 335 336 338 340 339 337 335 334 332 330 327 326 324 324 323 322 321 321 322 323 324 324 322 319 317 318 319 318 314 312 311 311 312 313 312 310 307 305 302 300 299 298 295 293 292 292 293 294 296 299 300 301 300 299 297 292 285 279 274 273 272 270 269 267 263 260 258 256 255 254 251 246 241 237 236
329 329 330 331 331 331 331 331 332 333 333 334 336 337 337 336 334 333 332 330 328 327 326 325 323 323 322 322 323 323 323 323 321 318 314 313 317 318 316 314 313 314 314 313 311 308 306 303 301 300 300 299 296 294 293 293 295 297 299 300 301 300 298 296 293 289 282 274 271 271 270 268 268 266 262 258 254 253 252 252 252 250 246 240 236
326 326 327 329 329 328 329 329 330 331 332 332 334 335 336 335 333 332 332 330 328 327 326 325 323 323 322 322 322 322 321 322 321 318 313 312 316 318 317 317 317 316 314 310 307 306 304 302 301 300 299 299 298 297 296 297 298 299 300 301 301 300 298 293 289 285 279 272 269 268 267 266 265 264 262 259 256 255 253 251 251 251 250 246 241
324 324 325 326 327 326 327 328 329 330 331 331 332 333 334 333 332 331 330 330 328 326 325 324 323 322 322 321 321 321 320 321 322 319 314 314 317 319 319 319 317 313 309 306 303 302 301 299 298 297 297 298 299 299 299 300 300 300 300 301 301 300 296 291 287 283 277 272 269 267 265 263 261 260 260 260 259 259 258 255 253 252 251 250 248
322 323 323 324 324 325 326 327 328 328 329 330 330 331 331 331 331 330 329 328 327 325 324 323 323 322 322 322 321 321 321 322 322 320 316 315 319 320 320 317 311 306 303 300 298 296 296 296 297 298 298 299 299 299 299 299 300 300 300 300 299 298 295 290 286 282 277 273 269 267 267 265 263 261 261 263 264 264 263 261 258 255 252 251 250
319 320 321 322 322 323 325 326 326 326 327 328 329 329 329 330 329 329 328 327 326 325 323 322 322 321 321 322 322 322 322 322 322 319 316 317 320 320 319 316 312 308 305 303 302 300 300 300 300 300 300 299 299 298 299 299 300 300 300 300 300 298 295 290 285 281 278 276 273 270 268 267 266 266 266 268 270 271 271 270 266 262 257 253 250
317 318 319 319 320 322 324 325 325 325 326 327 327 327 328 329 329 328 327 326 325 324 323 322 321 321 321 322 323 323 323 323 322 320 318 318 320 320 319 318 316 314 312 311 309 306 304 303 302 301 300 299 299 300 301 301 302 302 301 300 299 298 295 291 286 282 281 280 279 276 273 270 270 270 271 272 275 276 276 277 276 271 265 260 256
315 315 316 317 319 321 322 323 324 325 325 326 327 327 327 328 328 328 327 325 325 324 322 321 321 320 320 323 324 324 324 323 323 322 319 319 319 319 319 318 317 315 314 312 310 308 306 304 304 303 300 299 301 304 306 305 304 302 300 299 297 294 291 290 287 286 286 285 284 282 280 277 274 273 274 276 277 277 277 279 280 278 273 266 261
313 313 314 316 317 319 320 322 323 324 325 325 326 326 327 328 328 327 326 325 324 323 322 322 321 319 320 323 324 325 324 323 323 322 320 319 318 317 317 317 315 313 313 312 311 312 311 310 310 307 302 300 305 309 309 308 306 303 300 298 295 291 287 286 285 284 285 284 284 283 282 280 277 277 277 277 277 278 278 279 280 281 278 272 264
311 312 313 315 316 318 319 321 322 322 324 324 325 326 327 327 327 326 326 324 324 323 323 323 322 321 322 324 324 324 324 323 323 322 320 318 317 316 317 317 314 312 313 314 314 315 316 317 317 313 306 304 308 310 308 307 308 308 306 300 293 288 286 284 283 283 282 281 281 280 279 278 277 277 277 276 277 278 279 279 280 282 281 277 270
310 311 312 314 315 317 318 320 320 321 323 324 324 325 326 326 326 325 325 324 322 322 323 324 323 323 324 325 324 324 323 322 321 322 320 318 316 316 317 317 314 313 314 315 315 315 316 318 318 315 311 308 308 306 303 304 307 310 310 304 293 288 288 287 284 282 280 279 279 278 277 277 275 274 273 274 275 276 277 279 280 281 281 279 275
309 310 312 313 314 315 317 319 319 320 322 323 324 324 325 325 325 325 324 322 321 321 322 324 324 324 324 324 323 323 322 321 320 321 321 319 318 318 318 317 315 315 315 315 314 315 315 315 314 313 311 309 307 305 303 303 303 305 307 304 296 293 295 294 289 284 281 279 278 278 277 277 275 272 271 271 272 272 274 276 278 280 280 279 276
309 310 311 312 313 314 316 318 319 320 321 322 323 324 324 324 324 324 322 321 320 320 321 322 323 323 323 323 323 323 322 322 321 321 321 320 318 318 316 315 315 314 313 314 314 315 314 313 313 311 309 308 308 307 305 304 303 303 304 302 297 294 296 297 294 290 286 283 281 279 278 276 273 272 271 271 271 271 273 274 276 278 278 277 274
308 310 310 311 312 314 316 317 318 320 321 321 322 322 322 323 323 322 320 319 320 320 320 321 322 322 321 321 322 322 322 322 321 321 321 321 319 317 314 313 315 314 312 312 314 314 313 312 311 309 308 308 308 308 307 306 305 305 305 303 300 297 298 298 297 294 290 287 284 282 280 277 275 273 273 273 273 273 274 274 275 275 275 274 272
307 308 309 310 312 313 315 316 317 319 320 320 320 320 320 321 321 320 318 318 318 319 319 320 321 321 320 321 321 322 322 322 321 321 322 322 321 318 314 314 315 315 313 312 313 313 312 312 311 308 307 307 308 308 307 307 307 307 306 305 303 302 301 300 298 296 293 289 286 284 282 280 279 277 277 276 276 276 275 275 274 273 272 271 269
306 307 308 309 311 312 313 314 316 317 318 318 318 318 319 320 319 318 317 317 317 318 318 319 319 319 320 320 320 321 323 322 321 322 323 323 321 318 315 314 315 315 314 313 313 313 314 314 311 309 308 307 307 307 306 307 307 306 306 305 304 303 302 301 299 296 293 291 288 286 284 282 281 280 280 279 279 278 277 277 276 274 272 270 268
305 306 306 308 309 311 312 313 315 316 316 316 317 317 318 319 318 317 317 317 317 317 318 318 318 319 319 320 320 321 322 322 322 323 323 322 321 319 316 315 316 316 315 313 312 314 316 314 310 308 309 309 307 307 306 306 306 306 305 304 303 303 302 301 299 296 293 291 289 288 287 285 284 283 283 282 282 281 280 278 277 275 273 271 268
305 305 306 308 309 310 312 313 314 314 314 315 315 316 317 318 317 316 317 317 317 317 317 317 318 318 319 319 319 320 321 321 322 322 322 322 321 319 318 316 316 317 315 313 313 314 315 313 308 307 309 310 309 308 307 306 306 306 305 305 304 304 303 301 298 295 293 291 290 289 288 287 287 286 286 285 284 283 281 279 277 276 274 272 269
304 305 306 308 309 310 311 312 313 313 313 314 315 315 316 317 316 316 316 317 317 316 316 317 317 318 318 319 319 320 321 322 322 321 321 321 320 319 317 315 315 315 314 313 313 314 313 312 309 309 310 310 309 308 308 307 307 307 306 306 305 304 302 299 296 294 293 293 292 291 290 289 289 289 289 287 286 284 282 280 278 276 274 272 270
303 305 306 308 309 310 310 311 312 312 313 314 314 315 315 316 316 316 316 316 316 316 316 316 316 317 318 318 319 320 321 322 321 320 320 321 320 317 315 314 314 314 313 313 314 315 314 313 311 310 310 310 309 308 308 308 308 307 306 305 304 303 301 298 296 294 293 294 294 293 292 291 291 292 291 289 287 285 283 280 278 276 275 273 271
303 304 306 307 308 309 309 310 311 312 312 313 314 314 314 314 316 316 316 316 315 315 315 316 316 317 318 319 319 320 320 320 319 319 319 319 318 316 314 313 314 314 314 315 315 315 313 312 310 309 309 309 308 307 308 308 307 306 306 305 303 302 300 298 296 295 295 295 295 295 294 294 294 295 293 291 289 286 283 281 279 277 275 273 270
302 303 305 306 306 307 308 309 310 310 311 312 313 313 312 313 315 316 315 315 314 314 315 316 316 317 318 318 319 318 318 318 318 318 318 317 317 315 314 314 314 315 315 314 313 312 311 311 310 309 308 308 307 307 307 306 306 306 306 305 304 303 302 300 299 298 297 296 296 296 296 296 296 296 295 292 289 286 283 282 280 278 275 273 270
302 301 303 304 305 305 306 307 308 309 309 310 312 312 311 312 314 315 315 314 314 314 315 315 316 316 317 318 317 317 317 317 317 317 317 317 317 316 315 315 314 315 315 313 312 312 312 311 310 309 307 307 306 306 306 306 306 306 306 305 303 303 302 301 300 299 299 298 297 298 298 298 298 297 295 292 290 287 284 282 279 277 275 272 268
301 301 301 302 303 304 305 306 307 308 308 309 311 311 311 313 314 315 315 314 314 314 314 315 315 316 316 317 317 317 316 317 318 318 319 318 318 317 316 315 315 315 314 313 312 311 311 310 309 307 306 306 306 306 306 306 306 306 305 304 303 302 302 301 301 300 300 299 299 300 301 300 298 297 295 293 291 288 285 282 279 277 274 271 267
300 300 301 302 302 304 305 306 307 307 308 309 311 312 312 313 314 314 314 314 314 314 314 314 315 315 316 317 317 317 317 318 319 320 320 320 319 318 317 316 316 315 313 312 311 310 310 309 308 307 306 306 307 307 307 306 306 305 305 304 303 302 302 301 300 300 300 299 299 301 302 301 298 297 295 294 291 288 285 282 280 277 273 270 267
299 299 301 301 302 304 304 306 307 307 309 310 311 312 312 313 313 314 314 314 314 314 314 314 315 316 316 317 318 319 319 320 321 321 321 321 320 319 318 316 315 314 312 312 311 310 310 309 308 308 307 307 307 307 306 305 305 304 304 303 302 302 301 300 300 300 300 299 300 302 303 301 298 297 295 293 291 287 283 282 281 278 274 270 266
298 299 300 301 302 303 304 306 308 309 310 312 312 312 313 313 314 314 314 314 314 315 315 314 315 316 317 318 319 320 320 321 322 322 322 321 320 318 317 316 315 313 313 312 311 310 309 308 308 308 308 307 307 306 306 305 304 304 303 302 302 301 301 300 300 300 300 299 300 302 302 300 299 297 294 292 290 286 283 281 279 278 275 269 263
Height
10983 10982 10981 10979 10978 10977 10976 10975 10974 10972 10971 10970 10969 10968 10967 10966 10965 10964 10963 10962 10960 10960 10959 10958 10957 10955 10954 10953 10952 10950 10949 10948 10947 10946 10945 10944 10943 10943 10942 10941 10941 10941 10941 10940 10941 10941 10941 10941 10940 10939 10939 10939 10940 10941 10942 10943 10943 10943 10942 10942 10941 10940 10940 10939 10940 10940 10939 10939 10940 10941 10941 10942 10942 10942 10942 10942 10942 10942 10942 10941 10941 10941 10941 10941 10940
10985 10983 10982 10980 10979 10978 10976 10975 10974 10973 10972 10970 10969 10968 10968 10968 10967 10966 10965 10963 10962 10961 10961 10960 10959 10958 10957 10956 10954 10953 10951 10950 10948 10947 10946 10945 10943 10942 10941 10941 10940 10940 10939 10939 10939 10939 10939 10938 10938 10937 10938 10939 10940 10941 10941 10941 10941 10940 10940 10940 10940 10940 10940 10939 10939 10939 10939 10939 10939 10939 10940 10941 10941 10941 10941 10941 10941 10941 10941 10941 10941 10941 10941 10940 10940
10986 10984 10983 10981 10980 10979 10977 10976 10975 10974 10972 10971 10970 10970 10969 10969 10969 10967 10966 10965 10964 10963 10963 10962 10961 10960 10959 10958 10957 10955 10953 10952 10950 10949 10947 10946 10944 10943 10942 10940 10939 10938 10937 10937 10937 10937 10937 10936 10935 10935 10937 10938 10939 10939 10939 10938 10938 10938 10938 10939 10939 10939 10939 10939 10939 10938 10938 10938 10938 10938 10938 10939 10940 10940 10940 10941 10941 10941 10941 10941 10940 10940 10940 10940 10940
10987 10986 10984 10982 10981 10979 10979 10978 10976 10975 10974 10973 10972 10972 10971 10970 10969 10968 10967 10966 10965 10965 10964 10963 10962 10961 10960 10959 10958 10956 10955 10954 10952 10951 10949 10947 10946 10944 10943 10941 10939 10938 10936 10935 10935 10934 10934 10934 10933 10933 10935 10936 10936 10936 10936 10936 10936 10937 10937 10937 10938 10938 10938 10938 10938 10938 10937 10937 10937 10937 10937 10938 10938 10939 10939 10939 10939 10939 10940 10940 10940 10940 10939 10939 10939
10988 10987 10985 10983 10982 10980 10980 10979 10978 10977 10976 10975 10974 10973 10972 10971 10970 10969 10968 10968 10967 10966 10965 10964 10963 10962 10961 10960 10959 10957 10956 10954 10953 10952 10950 10948 10946 10945 10943 10942 10940 10938 10936 10935 10933 10932 10932 10931 10931 10931 10932 10933 10933 10933 10934 10934 10935 10935 10935 10935 10936 10936 10937 10937 10937 10937 10937 10936 10936 10936 10936 10937 10937 10937 10938 10938 10938 10938 10938 10939 10939 10939 10939 10939 10938
10989 10987 10986 10984 10983 10981 10980 10979 10978 10977 10976 10975 10975 10974 10973 10972 10970 10969 10969 10968 10967 10966 10965 10965 10964 10963 10962 10961 10959 10958 10956 10954 10953 10952 10951 10949 10947 10946 10944 10942 10940 10938 10936 10934 10933 10931 10930 10929 10929 10928 10929 10930 10930 10931 10931 10932 10932 10932 10933 10934 10934 10935 10935 10936 10936 10936 10936 10936 10935 10935 10935 10935 10936 10936 10936 10936 10936 10936 10937 10937 10937 10938 10938 10938 10938
10989 10987 10986 10984 10983 10981 10980 10979 10978 10977 10976 10975 10974 10973 10973 10972 10971 10970 10969 10968 10967 10966 10965 10965 10964 10963 10962 10961 10959 10958 10956 10954 10953 10952 10951 10950 10948 10946 10944 10942 10940 10938 10936 10934 10932 10931 10929 10929 10927 10926 10926 10927 10927 10927 10928 10928 10929 10930 10931 10932 10933 10934 10934 10934 10934 10934 10935 10935 10934 10934 10934 10934 10934 10934 10935 10935 10935 10935 10935 10935 10936 10936 10936 10937 10937
10989 10987 10986 10985 10983 10982 10980 10979 10978 10977 10976 10975 10974 10973 10972 10971 10971 10970 10969 10968 10967 10966 10965 10964 10963 10962 10961 10960 10959 10957 10955 10954 10952 10951 10950 10949 10948 10946 10945 10942 10940 10937 10935 10933 10932 10930 10929 10928 10927 10926 10925 10924 10924 10923 10924 10924 10925 10927 10929 10930 10932 10932 10933 10932 10933 10933 10933 10933 10933 10933 10933 10933 10933 10933 10933 10933 10933 10933 10933 10933 10934 10934 10935 10935 10936
10989 10988 10986 10985 10983 10982 10981 10980 10979 10978 10977 10975 10974 10973 10972 10971 10970 10969 10968 10967 10966 10965 10964 10964 10962 10961 10960 10959 10957 10956 10954 10953 10952 10951 10950 10949 10948 10946 10944 10942 10940 10938 10935 10933 10931 10930 10928 10927 10926 10925 10924 10923 10921 10920 10919 10920 10921 10923 10925 10928 10930 10931 10931 10932 10932 10931 10931 10931 10931 10931 10932 10932 10932 10932 10931 10931 10931 10931 10931 10931 10932 10932 10933 10933 10933
10990 10988 10987 10985 10984 10982 10981 10980 10979 10978 10977 10976 10975 10974 10973 10972 10970 10969 10968 10967 10966 10965 10964 10963 10962 10960 10959 10958 10956 10955 10953 10952 10951 10950 10948 10947 10947 10945 10943 10942 10940 10938 10936 10934 10931 10930 10928 10927 10926 10925 10923 10921 10919 10917 10916 10915 10916 10919 10921 10924 10927 10929 10929 10930 10930 10930 10930 10930 10930 10929 10929 10930 10930 10930 10930 10930 10930 10930 10930 10930 10930 10930 10930 10931 10931
10990 10989 10987 10986 10985 10984 10982 10981 10980 10979 10978 10977 10976 10974 10973 10971 10970 10969 10967 10966 10964 10964 10963 10962 10961 10960 10958 10956 10955 10954 10953 10951 10950 10949 10947 10946 10945 10944 10943 10941 10940 10938 10937 10935 10933 10930 10929 10927 10926 10924 10922 10920 10918 10916 10913 10911 10912 10914 10917 10921 10924 10926 10926 10927 10928 10928 10928 10927 10927 10927 10927 10927 10928 10928 10928 10928 10928 10928 10928 10928 10928 10928 10928 10928 10929
10990 10989 10988 10986 10985 10984 10983 10982 10980 10979 10978 10977 10975 10974 10973 10971 10969 10968 10966 10965 10963 10962 10962 10961 10959 10958 10957 10955 10954 10953 10952 10950 10948 10947 10946 10945 10944 10943 10941 10940 10939 10937 10936 10935 10933 10931 10929 10927 10926 10924 10922 10920 10918 10915 10913 10910 10908 10910 10913 10917 10920 10922 10923 10924 10925 10925 10925 10925 10924 10924 10924 10925 10925 10925 10925 10926 10926 10926 10926 10926 10927 10926 10926 10926 10927
10990 10989 10988 10987 10985 10984 10983 10982 10980 10979 10978 10977 10975 10973 10972 10970 10968 10967 10965 10964 10962 10961 10960 10959 10958 10957 10956 10954 10952 10951 10950 10949 10947 10945 10945 10944 10943 10942 10940 10939 10938 10936 10935 10934 10932 10931 10929 10927 10926 10924 10922 10920 10918 10916 10913 10910 10908 10908 10910 10914 10916 10918 10919 10921 10922 10922 10923 10922 10921 10921 10921 10921 10922 10922 10922 10923 10923 10924 10924 10924 10924 10924 10924 10924 10924
10990 10989 10988 10986 10985 10984 10983 10982 10980 10979 10978 10976 10975 10973 10971 10969 10967 10966 10964 10963 10961 10960 10959 10957 10956 10955 10954 10952 10951 10950 10948 10947 10946 10943 10943 10942 10941 10940 10939 10937 10936 10935 10933 10933 10931 10930 10928 10927 10925 10923 10922 10920 10918 10916 10914 10912 10910 10909 10910 10912 10914 10916 10916 10917 10918 10919 10919 10919 10918 10918 10918 10918 10918 10918 10919 10919 10920 10921 10921 10921 10921 10922 10922 10922 10922
10990 10988 10987 10986 10984 10983 10982 10981 10980 10978 10977 10975 10974 10972 10970 10968 10966 10965 10964 10962 10960 10958 10957 10955 10954 10953 10951 10950 10949 10948 10947 10945 10944 10942 10941 10940 10939 10938 10937 10936 10934 10933 10932 10931 10929 10928 10927 10926 10924 10923 10921 10919 10918 10916 10915 10914 10913 10912 10912 10912 10913 10914 10915 10915 10916 10916 10915 10915 10914 10914 10915 10915 10915 10915 10915 10915 10916 10917 10917 10918 10918 10918 10919 10919 10920
10989 10988 10987 10985 10984 10983 10981 10980 10979 10978 10976 10974 10973 10971 10969 10967 10965 10963 10962 10961 10959 10956 10955 10953 10952 10950 10949 10948 10947 10946 10945 10944 10943 10941 10939 10938 10938 10936 10935 10934 10932 10931 10930 10929 10927 10925 10924 10923 10922 10921 10920 10918 10917 10916 10915 10914 10913 10913 10913 10913 10913 10914 10914 10914 10914 10913 10913 10912 10911 10910 10910 10910 10911 10911 10911 10911 10912 10912 10913 10913 10914 10915 10915 10916 10917
10988 10987 10986 10985 10984 10983 10982 10980 10979 10977 10975 10973 10972 10970 10968 10966 10963 10961 10959 10958 10957 10955 10953 10951 10950 10948 10946 10945 10944 10943 10943 10942 10940 10938 10937 10936 10936 10935 10933 10931 10930 10929 10927 10927 10925 10923 10921 10920 10919 10918 10918 10916 10915 10913 10912 10912 10911 10911 10910 10911 10911 10911 10910 10910 10910 10909 10909 10908 10907 10906 10905 10905 10905 10905 10906 10907 10907 10907 10908 10908 10909 10910 10911 10912 10913
10988 10987 10986 10985 10984 10983 10981 10980 10978 10976 10975 10972 10970 10968 10967 10965 10962 10960 10957 10955 10954 10953 10951 10950 10948 10947 10945 10943 10942 10941 10940 10939 10938 10936 10934 10932 10932 10932 10931 10929 10927 10926 10925 10924 10923 10921 10919 10917 10916 10915 10914 10914 10913 10911 10910 10909 10908 10908 10907 10907 10907 10906 10906 10905 10904 10904 10903 10902 10901 10900 10900 10899 10899 10899 10899 10900 10901 10902 10903 10903 10904 10905 10906 10907 10908
10987 10986 10985 10984 10983 10982 10980 10979 10977 10975 10973 10971 10969 10966 10964 10962 10960 10958 10956 10953 10951 10950 10948 10947 10946 10945 10943 10942 10940 10939 10937 10936 10935 10934 10932 10930 10928 10927 10927 10926 10925 10923 10922 10921 10919 10918 10917 10915 10913 10912 10911 10910 10909 10909 10907 10906 10906 10905 10904 10903 10903 10902 10902 10901 10900 10899 10898 10896 10895 10894 10893 10893 10893 10893 10893 10893 10894 10896 10897 10898 10898 10899 10900 10902 10903
10986 10984 10983 10982 10981 10980 10979 10977 10975 10973 10971 10968 10966 10964 10962 10960 10958 10956 10954 10952 10950 10948 10947 10945 10944 10943 10942 10940 10939 10937 10935 10933 10932 10930 10929 10927 10925 10924 10923 10922 10921 10920 10920 10918 10916 10914 10913 10912 10910 10909 10908 10906 10905 10905 10904 10902 10902 10902 10901 10900 10899 10898 10897 10896 10895 10894 10892 10891 10889 10887 10886 10885 10885 10886 10886 10886 10887 10888 10890 10891 10892 10893 10894 10895 10897
10984 10983 10982 10981 10980 10978 10977 10975 10973 10971 10969 10967 10964 10962 10960 10958 10956 10954 10953 10951 10949 10947 10946 10944 10942 10941 10939 10938 10936 10934 10932 10930 10928 10927 10925 10924 10922 10920 10918 10917 10916 10916 10916 10915 10913 10911 10909 10907 10907 10906 10904 10902 10900 10900 10899 10898 10897 10896 10896 10896 10895 10894 10893 10892 10890 10888 10887 10885 10884 10882 10880 10879 10879 10879 10879 10880 10880 10881 10882 10883 10885 10887 10888 10889 10890
10983 10982 10980 10979 10978 10976 10975 10973 10971 10969 10967 10965 10963 10960 10958 10956 10954 10952 10951 10949 10947 10945 10944 10942 10940 10939 10937 10935 10933 10931 10929 10927 10925 10923 10921 10920 10918 10916 10915 10913 10911 10910 10910 10910 10909 10907 10905 10903 10901 10901 10900 10899 10897 10895 10895 10894 10893 10891 10890 10890 10889 10889 10888 10886 10885 10883 10881 10879 10877 10875 10874 10874 10873 10873 10873 10873 10873 10874 10875 10876 10877 10879 10881 10882 10883
10981 10980 10979 10977 10976 10974 10973 10971 10969 10967 10965 10963 10961 10958 10956 10954 10952 10950 10948 10946 10945 10943 10941 10940 10938 10936 10934 10932 10930 10928 10926 10924 10922 10920 10918 10916 10914 10913 10911 10910 10907 10905 10904 10904 10903 10901 10899 10898 10897 10896 10895 10894 10892 10891 10889 10889 10888 10887 10885 10883 10882 10881 10881 10880 10879 10877 10875 10872 10871 10869 10867 10867 10867 10867 10867 10867 10867 10867 10867 10868 10869 10871 10872 10874 10876
10979 10978 10976 10975 10973 10972 10970 10968 10966 10964 10962 10961 10959 10956 10954 10952 10950 10948 10946 10944 10942 10941 10939 10937 10936 10934 10932 10929 10927 10925 10922 10920 10918 10916 10914 10912 10910 10908 10906 10905 10903 10901 10899 10898 10897 10895 10893 10892 10892 10891 10890 10888 10887 10885 10884 10883 10882 10882 10880 10877 10875 10874 10872 10871 10870 10869 10868 10866 10864 10863 10861 10860 10860 10860 10860 10860 10860 10860 10860 10861 10861 10862 10864 10866 10868
10977 10976 10974 10972 10971 10970 10968 10966 10964 10962 10960 10958 10956 10954 10952 10949 10947 10946 10943 10941 10939 10937 10936 10934 10933 10931 10929 10926 10924 10922 10919 10917 10914 10911 10909 10907 10906 10904 10902 10900 10898 10896 10893 10891 10890 10888 10886 10885 10884 10884 10884 10884 10882 10880 10877 10876 10875 10874 10873 10872 10869 10867 10865 10863 10862 10861 10860 10858 10857 10856 10855 10854 10854 10854 10853 10853 10853 10853 10853 10853 10853 10854 10855 10857 10859
10975 10974 10972 10971 10969 10967 10966 10964 10962 10960 10958 10955 10953 10952 10949 10947 10944 10942 10940 10938 10935 10934 10932 10931 10929 10927 10925 10922 10920 10918 10916 10913 10911 10908 10905 10903 10902 10900 10897 10895 10893 10890 10887 10885 10883 10882 10880 10878 10877 10876 10876 10876 10875 10874 10872 10870 10867 10865 10864 10863 10861 10859 10857 10855 10854 10853 10852 10851 10850 10849 10848 10848 10847 10847 10847 10846 10846 10846 10846 10847 10847 10847 10847 10848 10850
10973 10972 10970 10969 10967 10965 10963 10961 10960 10958 10956 10953 10951 10948 10946 10944 10941 10939 10937 10935 10932 10930 10929 10927 10925 10923 10921 10919 10916 10914 10911 10909 10907 10904 10901 10899 10897 10894 10892 10890 10887 10884 10881 10880 10879 10877 10876 10873 10872 10870 10868 10867 10866 10865 10863 10862 10859 10857 10854 10853 10851 10850 10848 10846 10845 10844 10844 10843 10843 10842 10842 10842 10841 10840 10840 10839 10839 10839 10839 10839 10840 10840 10840 10840 10841
10970 10968 10967 10967 10965 10963 10961 10959 10957 10955 10953 10951 10948 10946 10943 10941 10939 10937 10935 10933 10930 10927 10925 10924 10922 10920 10918 10915 10913 10910 10907 10905 10902 10900 10897 10894 10891 10889 10886 10883 10880 10877 10876 10876 10876 10874 10872 10869 10867 10864 10862 10860 10857 10854 10852 10851 10849 10847 10845 10843 10841 10839 10838 10837 10836 10836 10835 10835 10835 10835 10835 10835 10835 10834 10833 10833 10833 10833 10832 10833 10833 10833 10834 10834 10834
10967 10965 10964 10963 10962 10961 10958 10956 10954 10952 10950 10949 10946 10944 10941 10938 10936 10934 10931 10930 10927 10924 10922 10920 10917 10915 10913 10911 10908 10905 10903 10900 10897 10894 10892 10889 10885 10882 10878 10875 10873 10872 10871 10871 10871 10870 10867 10865 10861 10858 10855 10852 10850 10847 10844 10842 10840 10837 10835 10833 10832 10830 10829 10828 10827 10827 10828 10828 10828 10827 10827 10827 10827 10827 10826 10826 10826 10826 10825 10826 10826 10826 10827 10827 10828
10965 10963 10961 10959 10958 10957 10955 10953 10952 10950 10948 10946 10944 10942 10939 10936 10933 10930 10928 10925 10924 10921 10917 10915 10912 10910 10908 10905 10903 10900 10897 10894 10891 10889 10886 10883 10880 10876 10873 10870 10868 10866 10864 10864 10864 10862 10860 10858 10856 10852 10849 10846 10843 10841 10837 10834 10832 10829 10826 10824 10823 10821 10820 10820 10819 10819 10820 10820 10820 10820 10819 10819 10818 10818 10818 10817 10817 10817 10817 10817 10817 10817 10818 10818 10819
10962 10961 10959 10956 10954 10952 10951 10949 10948 10946 10945 10943 10940 10938 10936 10934 10930 10927 10924 10921 10919 10916 10913 10910 10908 10905 10902 10900 10898 10895 10892 10889 10886 10884 10881 10878 10875 10872 10868 10865 10862 10860 10857 10856 10855 10854 10852 10850 10849 10846 10843 10840 10837 10835 10832 10828 10825 10822 10819 10818 10816 10814 10812 10811 10811 10811 10811 10811 10811 10811 10811 10810 10810 10809 10808 10807 10806 10806 10806 10806 10806 10807 10807 10808 10808
10959 10958 10956 10954 10951 10949 10947 10945 10943 10941 10940 10938 10936 10933 10931 10929 10926 10923 10919 10916 10914 10911 10908 10905 10903 10900 10897 10894 10892 10889 10887 10884 10880 10878 10875 10873 10869 10866 10863 10860 10857 10854 10852 10849 10848 10847 10845 10842 10841 10839 10836 10834 10831 10829 10826 10823 10820 10816 10813 10811 10810 10808 10806 10804 10803 10802 10801 10801 10800 10800 10800 10800 10800 10799 10797 10796 10795 10795 10795 10795 10795 10795 10795 10796 10796
10955 10953 10953 10951 10949 10946 10944 10942 10939 10937 10935 10933 10931 10929 10926 10924 10921 10917 10914 10911 10909 10906 10903 10901 10898 10896 10893 10889 10886 10883 10880 10877 10874 10871 10868 10866 10863 10860 10857 10854 10851 10849 10846 10843 10841 10839 10837 10835 10832 10830 10829 10827 10826 10823 10820 10817 10815 10812 10808 10805 10803 10801 10799 10797 10796 10795 10794 10792 10791 10790 10789 10789 10788 10787 10786 10785 10784 10784 10784 10784 10783 10783 10783 10783 10783
10952 10949 10948 10947 10945 10943 10941 10938 10936 10934 10932 10929 10927 10924 10922 10919 10915 10912 10909 10905 10903 10901 10898 10896 10893 10891 10888 10884 10880 10877 10874 10871 10867 10864 10861 10859 10856 10853 10851 10848 10845 10843 10840 10837 10834 10832 10830 10828 10825 10823 10822 10821 10819 10817 10815 10812 10809 10807 10803 10800 10796 10794 10792 10790 10789 10787 10786 10785 10783 10781 10780 10779 10778 10776 10775 10774 10773 10772 10772 10772 10771 10770 10769 10769 10769
10948 10946 10944 10942 10940 10939 10937 10935 10933 10930 10928 10926 10923 10920 10917 10914 10911 10907 10904 10900 10897 10895 10893 10890 10888 10885 10882 10879 10875 10872 10869 10865 10862 10859 10855 10852 10850 10847 10845 10841 10839 10836 10833 10830 10828 10825 10823 10821 10820 10818 10816 10815 10813 10811 10809 10806 10803 10800 10797 10794 10792 10789 10786 10784 10781 10779 10777 10776 10774 10772 10771 10770 10768 10767 10765 10764 10762 10761 10759 10759 10758 10757 10756 10756 10756
10944 10942 10940 10938 10936 10934 10933 10931 10929 10926 10924 10922 10920 10916 10912 10910 10906 10902 10899 10895 10892 10889 10887 10885 10883 10880 10877 10874 10870 10866 10863 10860 10856 10853 10849 10846 10843 10841 10838 10835 10832 10829 10827 10824 10821 10818 10815 10812 10811 10810 10808 10806 10804 10803 10801 10798 10795 10793 10791 10788 10785 10783 10780 10777 10774 10771 10768 10765 10763 10761 10759 10758 10756 10755 10754 10753 10752 10750 10748 10746 10745 10744 10743 10742 10742
10939 10937 10936 10934 10932 10930 10929 10927 10925 10922 10920 10918 10915 10912 10908 10905 10901 10897 10893 10890 10887 10884 10882 10879 10877 10874 10871 10868 10865 10861 10857 10853 10850 10847 10844 10839 10836 10834 10832 10829 10826 10823 10820 10818 10815 10811 10807 10804 10801 10800 10798 10796 10793 10792 10791 10789 10785 10783 10781 10779 10776 10774 10771 10768 10765 10761 10758 10755 10751 10749 10747 10745 10742 10741 10740 10739 10738 10738 10736 10735 10733 10732 10730 10729 10729
10934 10932 10930 10929 10927 10926 10924 10921 10919 10917 10915 10912 10910 10907 10903 10900 10897 10893 10888 10885 10882 10879 10876 10874 10871 10868 10865 10862 10859 10855 10852 10848 10844 10841 10838 10834 10830 10827 10825 10823 10820 10817 10814 10811 10808 10805 10801 10797 10793 10790 10787 10785 10782 10780 10778 10777 10773 10770 10767 10765 10763 10761 10759 10755 10751 10748 10745 10743 10739 10736 10734 10731 10729 10728 10726 10725 10724 10724 10723 10722 10721 10720 10718 10716 10715
10931 10928 10925 10924 10922 10921 10919 10916 10914 10913 10910 10908 10906 10903 10900 10896 10892 10889 10885 10881 10877 10874 10871 10868 10866 10863 10859 10855 10852 10850 10847 10843 10838 10835 10832 10828 10824 10820 10818 10815 10812 10809 10806 10804 10801 10798 10795 10790 10787 10783 10779 10775 10773 10770 10766 10764 10761 10758 10755 10752 10749 10747 10745 10742 10737 10733 10731 10729 10727 10724 10721 10719 10717 10715 10714 10713 10711 10710 10709 10708 10708 10706 10704 10703 10702
10927 10925 10922 10920 10918 10917 10915 10912 10910 10908 10906 10904 10901 10899 10896 10892 10888 10884 10880 10876 10873 10869 10866 10863 10860 10857 10853 10849 10845 10843 10841 10837 10832 10828 10825 10822 10818 10814 10811 10808 10804 10801 10799 10796 10793 10790 10787 10783 10779 10776 10772 10768 10765 10763 10758 10754 10752 10748 10745 10742 10739 10734 10731 10729 10724 10721 10719 10717 10715 10712 10710 10707 10706 10705 10703 10702 10699 10697 10696 10694 10692 10690 10689 10688 10688
10923 10921 10918 10916 10914 10913 10910 10908 10905 10903 10901 10899 10896 10893 10891 10888 10882 10878 10874 10871 10868 10864 10861 10857 10854 10851 10847 10842 10838 10836 10834 10830 10826 10822 10819 10815 10811 10808 10804 10801 10797 10794 10791 10788 10785 10782 10779 10775 10771 10768 10765 10761 10757 10754 10750 10746 10743 10740 10736 10734 10730 10726 10721 10716 10711 10708 10708 10707 10705 10702 10698 10695 10694 10694 10692 10690 10687 10684 10682 10679 10676 10674 10672 10672 10673
10917 10916 10914 10911 10909 10907 10905 10902 10899 10897 10895 10894 10891 10888 10886 10882 10877 10873 10869 10866 10862 10859 10855 10851 10848 10845 10840 10836 10831 10829 10827 10823 10819 10816 10813 10810 10806 10801 10797 10794 10790 10787 10783 10780 10777 10774 10771 10766 10762 10759 10756 10752 10747 10744 10741 10737 10734 10730 10726 10723 10720 10715 10712 10707 10701 10696 10696 10697 10697 10693 10687 10681 10681 10682 10680 10677 10673 10668 10666 10663 10660 10658 10657 10657 10657
10911 10910 10908 10906 10903 10900 10898 10895 10893 10890 10888 10886 10885 10882 10880 10877 10872 10867 10864 10860 10856 10852 10849 10845 10842 10838 10835 10830 10825 10822 10819 10815 10811 10808 10805 10803 10799 10795 10791 10787 10783 10779 10776 10772 10769 10766 10762 10757 10752 10748 10745 10741 10737 10733 10731 10728 10724 10720 10716 10712 10708 10705 10701 10698 10693 10687 10683 10685 10686 10684 10677 10669 10668 10670 10668 10663 10658 10653 10649 10647 10644 10642 10642 10642 10642
10906 10904 10903 10900 10897 10894 10891 10888 10886 10883 10880 10878 10877 10875 10874 10871 10867 10862 10858 10854 10850 10846 10843 10839 10835 10831 10828 10824 10819 10815 10811 10808 10803 10799 10796 10794 10791 10787 10783 10779 10775 10771 10767 10763 10760 10756 10751 10748 10743 10738 10734 10731 10727 10722 10720 10717 10714 10710 10707 10702 10698 10695 10691 10688 10685 10679 10673 10673 10674 10673 10667 10657 10654 10657 10655 10647 10642 10637 10632 10630 10628 10627 10628 10628 10628
10900 10898 10897 10895 10893 10889 10886 10882 10879 10876 10873 10871 10870 10868 10866 10865 10861 10857 10852 10848 10844 10840 10837 10833 10829 10825 10821 10817 10813 10808 10804 10801 10797 10792 10789 10786 10783 10779 10774 10769 10765 10761 10756 10752 10749 10745 10741 10738 10734 10729 10724 10721 10717 10712 10709 10707 10704 10700 10697 10692 10687 10684 10681 10677 10674 10669 10664 10662 10661 10661 10656 10645 10641 10643 10640 10631 10625 10620 10616 10614 10613 10612 10613 10614 10614
10894 10891 10889 10888 10887 10884 10881 10878 10875 10871 10867 10865 10864 10861 10859 10858 10855 10851 10847 10842 10837 10832 10829 10825 10821 10817 10814 10811 10807 10802 10798 10794 10791 10787 10783 10779 10775 10771 10766 10760 10755 10751 10746 10742 10739 10735 10732 10728 10724 10719 10714 10710 10706 10702 10698 10695 10692 10688 10685 10681 10675 10672 10669 10665 10660 10656 10652 10648 10647 10649 10646 10634 10628 10629 10624 10616 10610 10604 10601 10601 10599 10599 10600 10600 10600
10886 10884 10882 10880 10879 10877 10876 10873 10870 10866 10862 10859 10858 10855 10853 10850 10848 10845 10840 10835 10830 10825 10821 10818 10814 10810 10807 10804 10799 10795 10791 10787 10784 10780 10776 10771 10767 10762 10757 10752 10746 10741 10737 10733 10729 10725 10721 10717 10713 10708 10704 10700 10696 10693 10688 10684 10681 10677 10674 10670 10665 10662 10659 10654 10648 10643 10639 10633 10631 10635 10635 10624 10616 10614 10609 10601 10597 10592 10588 10587 10586 10586 10588 10588 10588
10878 10875 10873 10872 10870 10868 10868 10866 10864 10861 10857 10853 10851 10848 10845 10842 10839 10837 10833 10828 10823 10818 10814 10810 10806 10802 10799 10796 10792 10787 10782 10778 10775 10772 10767 10762 10757 10752 10748 10742 10737 10731 10727 10723 10719 10715 10711 10707 10703 10698 10693 10689 10685 10680 10676 10673 10669 10666 10664 10660 10655 10652 10649 10644 10637 10631 10625 10618 10615 10620 10622 10614 10604 10600 10595 10589 10586 10580 10575 10573 10574 10575 10576 10577 10577
10870 10866 10864 10862 10860 10859 10858 10858 10856 10853 10850 10847 10844 10841 10838 10834 10831 10828 10825 10820 10815 10810 10806 10802 10798 10794 10790 10787 10783 10778 10773 10768 10765 10761 10757 10752 10747 10742 10737 10732 10727 10722 10717 10712 10708 10703 10699 10696 10692 10687 10682 10678 10673 10669 10664 10660 10657 10655 10653 10649 10644 10640 10638 10633 10627 10621 10614 10605 10602 10606 10608 10600 10592 10588 10584 10580 10575 10569 10563 10561 10562 10564 10566 10566 10567
10862 10857 10855 10852 10850 10849 10848 10848 10847 10844 10841 10839 10836 10833 10830 10827 10823 10819 10816 10812 10807 10802 10798 10793 10789 10785 10781 10777 10774 10769 10763 10759 10755 10751 10748 10743 10738 10732 10727 10723 10718 10712 10708 10703 10698 10693 10688 10683 10679 10675 10671 10667 10664 10660 10655 10651 10647 10644 10643 10639 10634 10630 10627 10622 10617 10612 10604 10594 10590 10594 10594 10586 10579 10576 10574 10571 10565 10557 10553 10553 10552 10553 10556 10557 10557
10854 10850 10847 10844 10841 10840 10839 10839 10837 10833 10830 10828 10826 10823 10820 10818 10814 10810 10806 10802 10798 10794 10789 10785 10780 10777 10772 10768 10764 10760 10755 10750 10746 10742 10738 10733 10728 10723 10719 10714 10709 10703 10698 10694 10690 10685 10679 10674 10669 10666 10662 10658 10655 10651 10646 10641 10636 10633 10630 10627 10623 10619 10615 10610 10605 10601 10594 10584 10579 10582 10581 10573 10567 10564 10562 10562 10558 10547 10541 10544 10545 10544 10545 10547 10548